Location: Lansingburgh
(42.7845°N, 73.6696°W)
Time: 01:31:02
(UTC+00:00)

ERBS - Pass Details

Date: 24 January 2020
Orbit: 412 x 427 km, 57.0° (Epoch: 19 February)

Event Time Altitude Azimuth Distance (km) Brightness Sun altitude
Rises 22:27:27 0° 241° (WSW) 2,349 8.4 -6.0°
Reaches altitude 10° 22:29:36 10° 249° (WSW) 1,487 6.9 -6.4°
Maximum altitude 22:32:46 42° 322° (NW) 609 3.2 -6.9°
Drops below altitude 10° 22:35:57 10° 35° (NE) 1,489 4.6 -7.5°
Enters shadow 22:36:38 - 38° (NE) 1,757 4.9 -7.6°
